Location: Carbonear
(47.7333°N, 53.2500°W)
Time: 02:06:38
(UTC+00:00)

XW-2F - Pass Details

Date: 09 December 2022
Orbit: 471 x 485 km, 97.5° (Epoch: 08 February)

Event Time Altitude Azimuth Distance (km) Brightness Sun altitude
Rises 09:09:46 0° 28° (NNE) 2,540 ? -19.2°
Reaches altitude 10° 09:12:19 10° 47° (NE) 1,660 ? -18.8°
Maximum altitude 09:14:51 18° 93° (E) 1,236 ? -18.4°
Drops below altitude 10° 09:17:23 10° 138° (SE) 1,660 ? -18.0°
Sets 09:19:56 0° 158° (SSE) 2,540 ? -17.6°
